Darstellungsparameter: Aktuell verwendete Einstellungen:
Skalierung der Graphiken ... ?
xyx+y,   Skalierungsfaktor:      Skalierung: Modus: x, Faktor: 1
Darstellungszeitraum ... ?
Vom - - bis: - -   Zeitraum: 31.08.2019 - 31.08.2019
Min/Max/Avg-Anzeige ... ?
Zeige MMA aktuell
Zeige MMA Monat
Zeige MMA alles
Zeige --A aktuell
Zeige --A Monat
Zeige --A alles
Keine MMA-Anzeige
MMA:
Keine MMA-Graphiken
MMA-Basis: 31.08.2019 - 31.08.2019
Quicknavigation für Darstellung... ?
Tage:      1T, 2T, 3T, 5T -1T -2T -3T -5T +1T +2T +3T +5T
Wochen: 1W, 2W, 3W -1W -2W -3W +1W +2W +3W
Monate: 1M, 3M, 6M -1M -3M -6M +1M +3M +6M
Jahre:    1J, 3J, 5J, 10J -1J -3J -5J -10J +1J +3J +5J +10J
Nutze für die Darstellung ... ?
Originaldaten oder Mittelwerte auf ...
Stundenbasis Tagesbasis Wochenbasis
Monatsbasis Jahresbasis      Datenbasis: Original-Daten
Darstellen als:
Statistik (Auto) Statistik J:M      Darstellung:
Zur Graphik,    zurück zur Übersicht aller Sensoren.
 
Tabellarische Datenbersicht: ?
 
Sensor: Nr:Datum:Temp:Feuchte:Taupunkt:
Aussen-T/F 1 31-08-2019 00:00:00 16.9 C 80 % 13.43 C
2 31-08-2019 00:05:00 16.9 C 80 % 13.43 C
3 31-08-2019 00:10:00 16.9 C 80 % 13.43 C
4 31-08-2019 00:15:00 16.9 C 80 % 13.43 C
5 31-08-2019 00:20:00 16.8 C 80 % 13.33 C
6 31-08-2019 00:25:00 16.7 C 80 % 13.23 C
7 31-08-2019 00:30:00 16.7 C 81 % 13.43 C
8 31-08-2019 00:35:00 16.6 C 82 % 13.52 C
9 31-08-2019 00:40:00 16.5 C 82 % 13.42 C
10 31-08-2019 00:45:00 16.4 C 82 % 13.32 C
11 31-08-2019 00:50:00 16.3 C 82 % 13.22 C
12 31-08-2019 00:55:00 16.2 C 83 % 13.31 C
13 31-08-2019 01:00:00 16.2 C 83 % 13.31 C
14 31-08-2019 01:05:00 16.1 C 83 % 13.21 C
15 31-08-2019 01:10:00 16 C 84 % 13.3 C
16 31-08-2019 01:15:00 15.9 C 84 % 13.2 C
17 31-08-2019 01:20:00 15.8 C 84 % 13.1 C
18 31-08-2019 01:25:00 15.8 C 84 % 13.1 C
19 31-08-2019 01:30:00 15.8 C 84 % 13.1 C
20 31-08-2019 01:35:00 15.7 C 84 % 13.01 C
21 31-08-2019 01:40:00 15.7 C 85 % 13.19 C
22 31-08-2019 01:45:00 15.7 C 85 % 13.19 C
23 31-08-2019 01:50:00 15.6 C 85 % 13.09 C
24 31-08-2019 01:55:00 15.6 C 85 % 13.09 C
25 31-08-2019 02:00:00 15.5 C 85 % 12.99 C
Sensor: Nr:Datum:Temp:Feuchte:Taupunkt:
Aussen-T/F 26 31-08-2019 02:05:00 15.4 C 85 % 12.89 C
27 31-08-2019 02:10:00 15.3 C 86 % 12.97 C
28 31-08-2019 02:15:00 15.3 C 86 % 12.97 C
29 31-08-2019 02:20:00 15.3 C 86 % 12.97 C
30 31-08-2019 02:25:00 15.2 C 86 % 12.88 C
31 31-08-2019 02:30:00 15.2 C 86 % 12.88 C
32 31-08-2019 02:35:00 15.2 C 87 % 13.05 C
33 31-08-2019 02:40:00 15.1 C 87 % 12.95 C
34 31-08-2019 02:45:00 15.1 C 87 % 12.95 C
35 31-08-2019 02:50:00 15 C 87 % 12.86 C
36 31-08-2019 02:55:00 15 C 87 % 12.86 C
37 31-08-2019 03:00:00 15 C 88 % 13.03 C
38 31-08-2019 03:05:00 14.9 C 88 % 12.93 C
39 31-08-2019 03:10:00 14.9 C 88 % 12.93 C
40 31-08-2019 03:15:00 14.8 C 88 % 12.83 C
41 31-08-2019 03:20:00 14.8 C 88 % 12.83 C
42 31-08-2019 03:25:00 14.7 C 88 % 12.73 C
43 31-08-2019 03:30:00 14.7 C 89 % 12.91 C
44 31-08-2019 03:35:00 14.7 C 89 % 12.91 C
45 31-08-2019 03:40:00 14.7 C 89 % 12.91 C
46 31-08-2019 03:45:00 14.6 C 89 % 12.81 C
47 31-08-2019 03:50:00 14.6 C 89 % 12.81 C
48 31-08-2019 03:55:00 14.6 C 89 % 12.81 C
49 31-08-2019 04:00:00 14.5 C 89 % 12.71 C
50 31-08-2019 04:05:00 14.4 C 90 % 12.78 C
Sensor: Nr:Datum:Temp:Feuchte:Taupunkt:
Aussen-T/F 51 31-08-2019 04:10:00 14.4 C 90 % 12.78 C
52 31-08-2019 04:15:00 14.4 C 90 % 12.78 C
53 31-08-2019 04:20:00 14.4 C 90 % 12.78 C
54 31-08-2019 04:25:00 14.3 C 90 % 12.68 C
55 31-08-2019 04:30:00 14.3 C 90 % 12.68 C
56 31-08-2019 04:35:00 14.3 C 90 % 12.68 C
57 31-08-2019 04:40:00 14.2 C 90 % 12.58 C
58 31-08-2019 04:45:00 14.2 C 91 % 12.75 C
59 31-08-2019 04:50:00 14.2 C 91 % 12.75 C
60 31-08-2019 04:55:00 14.2 C 91 % 12.75 C
61 31-08-2019 05:00:00 14.2 C 91 % 12.75 C
62 31-08-2019 05:05:00 14.1 C 91 % 12.65 C
63 31-08-2019 05:10:00 14.1 C 91 % 12.65 C
64 31-08-2019 05:15:00 14.1 C 91 % 12.65 C
65 31-08-2019 05:20:00 14.1 C 91 % 12.65 C
66 31-08-2019 05:25:00 14.1 C 92 % 12.82 C
67 31-08-2019 05:30:00 14.1 C 92 % 12.82 C
68 31-08-2019 05:35:00 14.2 C 92 % 12.92 C
69 31-08-2019 05:40:00 14.2 C 92 % 12.92 C
70 31-08-2019 05:45:00 14.2 C 92 % 12.92 C
71 31-08-2019 05:50:00 14.2 C 92 % 12.92 C
72 31-08-2019 05:55:00 14.2 C 92 % 12.92 C
73 31-08-2019 06:00:00 14.3 C 92 % 13.02 C
74 31-08-2019 06:05:00 14.3 C 92 % 13.02 C
75 31-08-2019 06:10:00 14.3 C 92 % 13.02 C
Sensor: Nr:Datum:Temp:Feuchte:Taupunkt:
Aussen-T/F 76 31-08-2019 06:15:00 14.2 C 92 % 12.92 C
77 31-08-2019 06:20:00 14.2 C 92 % 12.92 C
78 31-08-2019 06:25:00 14.1 C 92 % 12.82 C
79 31-08-2019 06:30:00 14.1 C 92 % 12.82 C
80 31-08-2019 06:35:00 14 C 92 % 12.72 C
81 31-08-2019 06:40:00 14 C 92 % 12.72 C
82 31-08-2019 06:45:00 13.9 C 92 % 12.62 C
83 31-08-2019 06:50:00 13.9 C 92 % 12.62 C
84 31-08-2019 06:55:00 13.9 C 92 % 12.62 C
85 31-08-2019 07:00:00 13.9 C 92 % 12.62 C
86 31-08-2019 07:05:00 13.9 C 92 % 12.62 C
87 31-08-2019 07:10:00 13.9 C 92 % 12.62 C
88 31-08-2019 07:15:00 14 C 93 % 12.89 C
89 31-08-2019 07:20:00 14 C 93 % 12.89 C
90 31-08-2019 07:25:00 14.1 C 93 % 12.99 C
91 31-08-2019 07:30:00 14.1 C 93 % 12.99 C
92 31-08-2019 07:35:00 14.1 C 93 % 12.99 C
93 31-08-2019 07:40:00 14.2 C 93 % 13.08 C
94 31-08-2019 07:45:00 14.3 C 93 % 13.18 C
95 31-08-2019 07:50:00 14.4 C 93 % 13.28 C
96 31-08-2019 07:55:00 14.4 C 92 % 13.12 C
97 31-08-2019 08:00:00 14.5 C 92 % 13.22 C
98 31-08-2019 08:05:00 14.5 C 92 % 13.22 C
99 31-08-2019 08:10:00 14.6 C 92 % 13.32 C
100 31-08-2019 08:15:00 14.6 C 92 % 13.32 C
Sensor: Nr:Datum:Temp:Feuchte:Taupunkt:
Aussen-T/F 101 31-08-2019 08:20:00 14.7 C 93 % 13.58 C
102 31-08-2019 08:25:00 14.7 C 93 % 13.58 C
103 31-08-2019 08:30:00 14.8 C 93 % 13.68 C
104 31-08-2019 08:35:00 14.8 C 93 % 13.68 C
105 31-08-2019 08:40:00 14.9 C 93 % 13.78 C
106 31-08-2019 08:45:00 14.9 C 93 % 13.78 C
107 31-08-2019 08:50:00 15.1 C 93 % 13.98 C
108 31-08-2019 08:55:00 15.1 C 93 % 13.98 C
109 31-08-2019 09:00:00 15.2 C 93 % 14.08 C
110 31-08-2019 09:05:00 15.3 C 93 % 14.18 C
111 31-08-2019 09:10:00 15.4 C 93 % 14.27 C
112 31-08-2019 09:15:00 15.6 C 93 % 14.47 C
113 31-08-2019 09:20:00 15.7 C 92 % 14.4 C
114 31-08-2019 09:25:00 15.8 C 92 % 14.5 C
115 31-08-2019 09:30:00 15.9 C 92 % 14.6 C
116 31-08-2019 09:35:00 16.1 C 92 % 14.8 C
117 31-08-2019 09:40:00 16.2 C 92 % 14.9 C
118 31-08-2019 09:45:00 16.3 C 92 % 15 C
119 31-08-2019 09:50:00 16.5 C 92 % 15.2 C
120 31-08-2019 09:55:00 16.7 C 91 % 15.22 C
121 31-08-2019 10:00:00 16.8 C 92 % 15.49 C
122 31-08-2019 10:05:00 16.9 C 91 % 15.42 C
123 31-08-2019 10:10:00 17.1 C 91 % 15.62 C
124 31-08-2019 10:15:00 17.2 C 90 % 15.55 C
125 31-08-2019 10:20:00 17.4 C 90 % 15.74 C
Sensor: Nr:Datum:Temp:Feuchte:Taupunkt:
Aussen-T/F 126 31-08-2019 10:25:00 17.6 C 89 % 15.77 C
127 31-08-2019 10:30:00 17.8 C 89 % 15.96 C
128 31-08-2019 10:35:00 18.1 C 88 % 16.08 C
129 31-08-2019 10:40:00 18.3 C 88 % 16.28 C
130 31-08-2019 10:45:00 18.6 C 87 % 16.39 C
131 31-08-2019 10:50:00 18.8 C 87 % 16.59 C
132 31-08-2019 10:55:00 19 C 86 % 16.6 C
133 31-08-2019 11:00:00 19.3 C 85 % 16.72 C
134 31-08-2019 11:05:00 19.6 C 84 % 16.82 C
135 31-08-2019 11:10:00 19.7 C 82 % 16.54 C
136 31-08-2019 11:15:00 20 C 83 % 17.02 C
137 31-08-2019 11:20:00 20.3 C 83 % 17.32 C
138 31-08-2019 11:25:00 20.5 C 81 % 17.13 C
139 31-08-2019 11:30:00 20.8 C 82 % 17.61 C
140 31-08-2019 11:35:00 21 C 80 % 17.42 C
141 31-08-2019 11:40:00 21.2 C 79 % 17.41 C
142 31-08-2019 11:45:00 21.4 C 79 % 17.61 C
143 31-08-2019 11:50:00 21.6 C 79 % 17.8 C
144 31-08-2019 11:55:00 21.8 C 78 % 17.79 C
145 31-08-2019 12:00:00 22.1 C 77 % 17.88 C
146 31-08-2019 12:05:00 22.3 C 76 % 17.86 C
147 31-08-2019 12:10:00 22.6 C 75 % 17.94 C
148 31-08-2019 12:15:00 22.8 C 75 % 18.14 C
149 31-08-2019 12:20:00 23.1 C 73 % 17.99 C
150 31-08-2019 12:25:00 23.4 C 72 % 18.06 C
Sensor: Nr:Datum:Temp:Feuchte:Taupunkt:
Aussen-T/F 151 31-08-2019 12:30:00 23.8 C 74 % 18.89 C
152 31-08-2019 12:35:00 24.1 C 73 % 18.96 C
153 31-08-2019 12:40:00 24.3 C 74 % 19.37 C
154 31-08-2019 12:45:00 24.5 C 71 % 18.89 C
155 31-08-2019 12:50:00 24.9 C 71 % 19.28 C
156 31-08-2019 12:55:00 25.6 C 66 % 18.77 C
157 31-08-2019 13:00:00 26.3 C 62 % 18.44 C
158 31-08-2019 13:05:00 26.9 C 62 % 19 C
159 31-08-2019 13:10:00 27.4 C 58 % 18.4 C
160 31-08-2019 13:15:00 27.9 C 55 % 18.02 C
161 31-08-2019 13:20:00 28.2 C 60 % 19.69 C
162 31-08-2019 13:25:00 28.4 C 54 % 18.19 C
163 31-08-2019 13:30:00 28.8 C 53 % 18.26 C
164 31-08-2019 13:35:00 29.2 C 52 % 18.33 C
165 31-08-2019 13:40:00 29.5 C 49 % 17.66 C
166 31-08-2019 13:45:00 29.7 C 49 % 17.84 C
167 31-08-2019 13:50:00 29.8 C 50 % 18.25 C
168 31-08-2019 13:55:00 29.8 C 51 % 18.57 C
169 31-08-2019 14:00:00 29.7 C 49 % 17.84 C
170 31-08-2019 14:05:00 29.8 C 50 % 18.25 C
171 31-08-2019 14:10:00 29.9 C 48 % 17.7 C
172 31-08-2019 14:15:00 30 C 48 % 17.79 C
173 31-08-2019 14:20:00 30.1 C 47 % 17.54 C
174 31-08-2019 14:25:00 30.3 C 47 % 17.73 C
175 31-08-2019 14:30:00 30.4 C 49 % 18.48 C
Sensor: Nr:Datum:Temp:Feuchte:Taupunkt:
Aussen-T/F 176 31-08-2019 14:35:00 30.6 C 47 % 18 C
177 31-08-2019 14:40:00 30.7 C 47 % 18.09 C
178 31-08-2019 14:45:00 30.8 C 47 % 18.18 C
179 31-08-2019 14:50:00 31 C 44 % 17.31 C
180 31-08-2019 14:55:00 31.1 C 45 % 17.76 C
181 31-08-2019 15:00:00 31 C 44 % 17.31 C
182 31-08-2019 15:05:00 31.1 C 45 % 17.76 C
183 31-08-2019 15:10:00 31.1 C 44 % 17.4 C
184 31-08-2019 15:15:00 31.1 C 44 % 17.4 C
185 31-08-2019 15:20:00 31.2 C 43 % 17.13 C
186 31-08-2019 15:25:00 31.3 C 42 % 16.85 C
187 31-08-2019 15:30:00 31.4 C 43 % 17.31 C
188 31-08-2019 15:35:00 31.6 C 44 % 17.85 C
189 31-08-2019 15:40:00 31.7 C 43 % 17.58 C
190 31-08-2019 15:45:00 31.8 C 43 % 17.67 C
191 31-08-2019 15:50:00 31.9 C 44 % 18.12 C
192 31-08-2019 15:55:00 32 C 41 % 17.09 C
193 31-08-2019 16:00:00 32 C 41 % 17.09 C
194 31-08-2019 16:05:00 32 C 44 % 18.21 C
195 31-08-2019 16:10:00 31.9 C 44 % 18.12 C
196 31-08-2019 16:15:00 32.1 C 46 % 19.02 C
197 31-08-2019 16:20:00 32.1 C 43 % 17.94 C
198 31-08-2019 16:25:00 32.3 C 43 % 18.12 C
199 31-08-2019 16:30:00 32.7 C 41 % 17.72 C
200 31-08-2019 16:35:00 32.8 C 41 % 17.81 C
Sensor: Nr:Datum:Temp:Feuchte:Taupunkt:
Aussen-T/F 201 31-08-2019 16:40:00 32.8 C 41 % 17.81 C
202 31-08-2019 16:45:00 32.8 C 41 % 17.81 C
203 31-08-2019 16:50:00 33 C 42 % 18.37 C
204 31-08-2019 16:55:00 33.3 C 41 % 18.25 C
205 31-08-2019 17:00:00 33.4 C 40 % 17.95 C
206 31-08-2019 17:05:00 33.5 C 41 % 18.43 C
207 31-08-2019 17:10:00 33.7 C 40 % 18.22 C
208 31-08-2019 17:15:00 34 C 41 % 18.88 C
209 31-08-2019 17:20:00 34.3 C 38 % 17.93 C
210 31-08-2019 17:25:00 34.2 C 41 % 19.06 C
211 31-08-2019 17:30:00 34.2 C 39 % 18.26 C
212 31-08-2019 17:35:00 34.1 C 39 % 18.17 C
213 31-08-2019 17:40:00 33.8 C 40 % 18.31 C
214 31-08-2019 17:45:00 33.7 C 40 % 18.22 C
215 31-08-2019 17:50:00 33.8 C 41 % 18.7 C
216 31-08-2019 17:55:00 34 C 38 % 17.67 C
217 31-08-2019 18:00:00 34 C 38 % 17.67 C
218 31-08-2019 18:05:00 34.1 C 39 % 18.17 C
219 31-08-2019 18:10:00 34 C 42 % 19.27 C
220 31-08-2019 18:15:00 34 C 38 % 17.67 C
221 31-08-2019 18:20:00 33.9 C 39 % 17.99 C
222 31-08-2019 18:25:00 33.6 C 39 % 17.73 C
223 31-08-2019 18:30:00 33.5 C 39 % 17.64 C
224 31-08-2019 18:35:00 33.4 C 40 % 17.95 C
225 31-08-2019 18:40:00 33.6 C 39 % 17.73 C
Sensor: Nr:Datum:Temp:Feuchte:Taupunkt:
Aussen-T/F 226 31-08-2019 18:45:00 33.6 C 40 % 18.13 C
227 31-08-2019 18:50:00 33.6 C 45 % 20.02 C
228 31-08-2019 18:55:00 33.3 C 42 % 18.64 C
229 31-08-2019 19:00:00 33.1 C 41 % 18.08 C
230 31-08-2019 19:05:00 33.1 C 46 % 19.92 C
231 31-08-2019 19:10:00 32.9 C 45 % 19.39 C
232 31-08-2019 19:15:00 32.5 C 46 % 19.38 C
233 31-08-2019 19:20:00 32.1 C 48 % 19.7 C
234 31-08-2019 19:25:00 31.7 C 48 % 19.34 C
235 31-08-2019 19:30:00 31.2 C 49 % 19.21 C
236 31-08-2019 19:35:00 30.6 C 50 % 18.99 C
237 31-08-2019 19:40:00 30 C 52 % 19.07 C
238 31-08-2019 19:45:00 29.4 C 53 % 18.82 C
239 31-08-2019 19:50:00 28.8 C 53 % 18.26 C
240 31-08-2019 19:55:00 28.2 C 55 % 18.3 C
241 31-08-2019 20:00:00 27.7 C 57 % 18.41 C
242 31-08-2019 20:05:00 27.2 C 57 % 17.94 C
243 31-08-2019 20:10:00 26.8 C 58 % 17.84 C
244 31-08-2019 20:15:00 26.4 C 59 % 17.74 C
245 31-08-2019 20:20:00 26.1 C 59 % 17.46 C
246 31-08-2019 20:25:00 25.8 C 60 % 17.45 C
247 31-08-2019 20:30:00 25.6 C 60 % 17.26 C
248 31-08-2019 20:35:00 25.4 C 60 % 17.07 C
249 31-08-2019 20:40:00 25.2 C 62 % 17.4 C
250 31-08-2019 20:45:00 25 C 62 % 17.21 C
Sensor: Nr:Datum:Temp:Feuchte:Taupunkt:
Aussen-T/F 251 31-08-2019 20:50:00 24.8 C 63 % 17.28 C
252 31-08-2019 20:55:00 24.7 C 63 % 17.18 C
253 31-08-2019 21:00:00 24.6 C 63 % 17.09 C
254 31-08-2019 21:05:00 24.5 C 64 % 17.24 C
255 31-08-2019 21:10:00 24.4 C 64 % 17.15 C
256 31-08-2019 21:15:00 24.4 C 64 % 17.15 C
257 31-08-2019 21:20:00 24.4 C 63 % 16.9 C
258 31-08-2019 21:25:00 24.5 C 64 % 17.24 C
259 31-08-2019 21:30:00 24.6 C 63 % 17.09 C
260 31-08-2019 21:35:00 24.6 C 64 % 17.34 C
261 31-08-2019 21:40:00 24.6 C 66 % 17.83 C
262 31-08-2019 21:45:00 25.2 C 58 % 16.35 C
263 31-08-2019 21:50:00 26.2 C 56 % 16.73 C
264 31-08-2019 21:55:00 26.5 C 55 % 16.72 C
265 31-08-2019 22:00:00 26.6 C 55 % 16.82 C
266 31-08-2019 22:05:00 26.4 C 56 % 16.92 C
267 31-08-2019 22:10:00 26.2 C 62 % 18.34 C
268 31-08-2019 22:15:00 25.9 C 64 % 18.57 C
269 31-08-2019 22:20:00 25.5 C 68 % 19.16 C
270 31-08-2019 22:25:00 25.1 C 70 % 19.24 C
271 31-08-2019 22:30:00 24.5 C 72 % 19.12 C
272 31-08-2019 22:35:00 23.9 C 75 % 19.2 C
273 31-08-2019 22:40:00 23.4 C 78 % 19.34 C
274 31-08-2019 22:45:00 22.9 C 80 % 19.26 C
275 31-08-2019 22:50:00 22.5 C 82 % 19.27 C
Sensor: Nr:Datum:Temp:Feuchte:Taupunkt:
Aussen-T/F 276 31-08-2019 22:55:00 22.1 C 84 % 19.27 C
277 31-08-2019 23:00:00 21.8 C 85 % 19.16 C
278 31-08-2019 23:05:00 21.6 C 86 % 19.16 C
279 31-08-2019 23:10:00 21.3 C 86 % 18.86 C
280 31-08-2019 23:15:00 21.1 C 86 % 18.67 C
281 31-08-2019 23:20:00 20.8 C 87 % 18.56 C
282 31-08-2019 23:25:00 20.6 C 87 % 18.36 C
283 31-08-2019 23:30:00 20.4 C 88 % 18.34 C
284 31-08-2019 23:35:00 20.3 C 88 % 18.25 C
285 31-08-2019 23:40:00 20.2 C 89 % 18.33 C
286 31-08-2019 23:45:00 20.2 C 90 % 18.51 C
287 31-08-2019 23:50:00 20.1 C 89 % 18.23 C
288 31-08-2019 23:55:00 19.9 C 90 % 18.21 C

Legende:
   Min
   Max


Maximal/Minimal-Werte vom 31.08.2019 - 31.08.2019

Sensor Min Max Avg
Temp
(Aussen-T/F)
13.9 °C
31-08-2019  06:45:00
34.3 °C
31-08-2019  17:20:00
22.06 °C
Feuchte
(Aussen-T/F)
38 %
31-08-2019  17:20:00
93 %
31-08-2019  07:15:00
72.12 %
Taupunkt
(Aussen-T/F)
12.58 C
31-08-2019  04:40:00
20.02 C
31-08-2019  18:50:00
15.89 C

Die Daten stammen von einer Davis Vantage Pro 2 Wetter-Station und werden unter Linux mit der Software wview2wettercgi und aufbereitet. Alle Angaben erfolgen ohne Gewähr für ihre Vollständigkeit oder Richtigkeit.
Kontakt: Rainer Krienke krienke@uni-koblenz.de . Meine Webseiten an der Uni Koblenz oder privat.
Version: $Revision: 0.78 $